TimePST,TemperatureF,Dew PointF,Humidity,Sea Level PressureIn,VisibilityMPH,Wind Direction,Wind SpeedMPH,Gust SpeedMPH,PrecipitationIn,Events,Conditions,WindDirDegrees,DateUTC
12:53 AM,43.0,33.1,68,29.77,10.0,NW,20.7,24.2,N/A,,Clear,320,2012-12-05 08:53:00
1:53 AM,42.1,33.1,70,29.79,10.0,NW,23.0,28.8,N/A,,Overcast,320,2012-12-05 09:53:00
2:53 AM,41.0,30.0,65,29.85,10.0,NW,15.0,-,N/A,,Mostly Cloudy,310,2012-12-05 10:53:00
3:53 AM,39.9,26.1,58,29.90,10.0,NW,19.6,-,N/A,,Partly Cloudy,320,2012-12-05 11:53:00
4:53 AM,37.9,26.1,62,29.94,10.0,WNW,13.8,17.3,N/A,,Clear,300,2012-12-05 12:53:00
6:53 AM,35.1,27.0,72,30.00,10.0,WSW,6.9,-,N/A,,Clear,240,2012-12-05 14:53:00
7:53 AM,37.9,28.9,70,30.04,10.0,NW,16.1,-,N/A,,Clear,310,2012-12-05 15:53:00
8:53 AM,39.9,28.0,63,30.07,10.0,WNW,18.4,23.0,N/A,,Clear,300,2012-12-05 16:53:00
9:53 AM,42.1,28.9,60,30.11,10.0,NW,17.3,23.0,N/A,,Clear,310,2012-12-05 17:53:00
10:53 AM,44.1,26.1,49,30.12,10.0,NW,23.0,29.9,N/A,,Clear,310,2012-12-05 18:53:00
11:53 AM,45.0,25.0,46,30.13,10.0,NW,19.6,-,N/A,,Clear,310,2012-12-05 19:53:00
12:53 PM,43.0,25.0,49,30.14,10.0,NW,17.3,-,N/A,,Scattered Clouds,320,2012-12-05 20:53:00
1:53 PM,45.0,25.0,46,30.14,10.0,NW,15.0,-,N/A,,Overcast,320,2012-12-05 21:53:00
2:53 PM,42.1,27.0,55,30.15,10.0,NNW,10.4,-,N/A,,Mostly Cloudy,330,2012-12-05 22:53:00
3:53 PM,41.0,27.0,57,30.17,10.0,NW,8.1,-,N/A,,Mostly Cloudy,320,2012-12-05 23:53:00
4:53 PM,39.0,27.0,62,30.19,10.0,NNW,6.9,-,N/A,,Overcast,330,2012-12-06 00:53:00
5:53 PM,35.1,25.0,67,30.20,10.0,WNW,4.6,-,N/A,,Scattered Clouds,300,2012-12-06 01:53:00
6:53 PM,35.1,26.1,70,30.20,10.0,Calm,Calm,-,N/A,,Mostly Cloudy,0,2012-12-06 02:53:00
7:53 PM,34.0,27.0,75,30.20,10.0,Calm,Calm,-,N/A,,Overcast,0,2012-12-06 03:53:00
8:53 PM,34.0,27.0,75,30.20,10.0,NNE,3.5,-,N/A,,Mostly Cloudy,30,2012-12-06 04:53:00
9:53 PM,34.0,27.0,75,30.19,10.0,Calm,Calm,-,N/A,,Overcast,0,2012-12-06 05:53:00
10:53 PM,33.1,27.0,78,30.17,10.0,East,3.5,-,N/A,,Mostly Cloudy,100,2012-12-06 06:53:00
11:53 PM,30.9,26.1,82,30.17,10.0,NNE,3.5,-,N/A,,Clear,20,2012-12-06 07:53:00